Torna al catalogo

STARLINK-3726

AttivoComunicazioniVLEO
NORAD 52122·PAYLOAD·🇺🇸 United States

Lanciato Mar 19, 2022 da Cape Canaveral Space Force Station

Loading…

Prossimi Passaggi (prossime 24 ore)

TLE

AggiornatoSource: CelesTrak SupGP

Epoca: Sep 14, 2026, 22:04 UTC

1 52122C 22029AL  26257.91993056  .00007505  00000+0  22780-3 0  2576
2 52122  53.1565 295.9715 0000912  85.1062 217.3386 15.33536967    10

Traccia STARLINK-3726 in tempo reale con AllMySat

Download on the App Store